Tracking 30157 objects as of 13-Feb-2025
HD Live streaming from Space Station
objects crossing your sky now

TIANQI 34

Track TIANQI 34 now!
10-day predictions


NORAD ID: 62366
Int'l Code: 2024-245B
Perigee: 901.1 km
Apogee: 908.3 km
Inclination: 45.0 °
Period: 102.9 minutes
Semi major axis: 7275 km
RCS: Unknown
Launch date: December 19, 2024
Source: People's Republic of China (PRC)
Launch site: Yellow Sea Launch Area, China (YSLA)
Your satellite tracking list
Your tracking list is empty




NASA's NSSDC Master Catalog

Two Line Element Set (TLE):
1 62366U 24245B   25043.78202651  .00000351  00000-0  33005-3 0  9998
2 62366  44.9817 339.0085 0004922 250.2996 109.7306 13.98920452  7798
Source of the keplerian elements: AFSPC